Skip Page Navigation
NASA JPL Caltech
NASA Logo - Jet Propulsion Laboratory + View the NASA Portal
+ Center for Near-Earth Object Studies
JPL Home Earth Solar System Stars & Galaxies Technology
JPL Solar System Dynamics
BODIES ORBITS EPHEMERIDES TOOLS PHYSICAL DATA DISCOVERY FAQ SITE MAP
IMPORTANT: The SSD Announcement email list is now available. Major changes are coming in the near future, including possible hostname and/or URL changes. To be notified of such changes, subscribe to this email list.

Please visit this page for more details.


JPL Small-Body Database Browser
Search: [ help ]  
52494 (1996 AN8)
Classification: Main-belt Asteroid          SPK-ID: 2052494
Ephemeris | Orbit Diagram | Orbital Elements | Mission Design | Physical Parameters | Discovery Circumstances ]

[ show orbit diagram ]
Orbital Elements at Epoch 2458600.5 (2019-Apr-27.0) TDB
Reference: JPL 19 (heliocentric ecliptic J2000)
 Element Value Uncertainty (1-sigma)   Units 
e .07751897234563758 4.7197e-08  
a 2.391629355552208 1.3099e-08 au
q 2.206232705678142 1.1321e-07 au
i 5.556027238320842 5.2175e-06 deg
node 293.5664947086095 5.9059e-05 deg
peri 189.185742967206 7.1561e-05 deg
M 106.2903879134599 4.2285e-05 deg
tp 2458201.630589519059
(2018-Mar-24.13058952)
0.00015708 TDB
period 1350.949889185182
3.70
1.1099e-05
3.039e-08
d
yr
n .2664791661644327 2.1893e-09 deg/d
Q 2.577026005426275 1.4114e-08 au
  Orbit Determination Parameters
   # obs. used (total)      676  
   data-arc span      8095 days (22.16 yr)  
   first obs. used      1996-01-13  
   last obs. used      2018-03-13  
   planetary ephem.      DE431  
   SB-pert. ephem.      SB431-N16  
   condition code      0  
   norm. resid. RMS      .54281  
   source      ORB  
   producer      Otto Matic  
   solution date      2019-Jul-13 03:06:21  

Additional Information
 Earth MOID = 1.22253 au 
 Jupiter MOID = 2.47705 au 
 T_jup = 3.521 
[ show covariance matrix ]

Ephemeris | Orbit Diagram | Orbital Elements | Mission Design | Physical Parameters | Discovery Circumstances ]

Physical Parameter Table
Parameter Symbol Value Units Sigma Reference Notes
absolute magnitude H 15.6   n/a MPO436151  

52494 (1996 AN8)          Discovered 1996-Jan-13 by Spacewatch at Kitt Peak
Reference: 20030216/Numbers.arcLast Updated: 2004-04-19

Alternate Designations
 1996 AN8 = 2000 GH172 
Ephemeris | Orbit Diagram | Orbital Elements | Mission Design | Physical Parameters | Discovery Circumstances ]
ABOUT SSD CREDITS/AWARDS PRIVACY/COPYRIGHT GLOSSARY LINKS
FirstGov 2020-Jan-23 22:59 UT
(server date/time)  
NASA Home Page
Site Manager:   Ryan S. Park
Webmaster  Alan B. Chamberlin